TimeCDT,TemperatureF,Dew PointF,Humidity,Sea Level PressureIn,VisibilityMPH,Wind Direction,Wind SpeedMPH,Gust SpeedMPH,PrecipitationIn,Events,Conditions,WindDirDegrees,DateUTC
12:35 AM,57.4,53.4,87,29.60,10.0,West,13.8,-,N/A,,Overcast,280,2013-05-21 05:35:00
12:38 AM,57.2,53.6,88,29.60,10.0,West,13.8,-,N/A,,Overcast,270,2013-05-21 05:38:00
12:55 AM,57.4,53.1,85,29.59,10.0,West,13.8,18.4,N/A,,Overcast,270,2013-05-21 05:55:00
1:15 AM,57.2,52.0,83,29.60,10.0,West,12.7,-,N/A,,Overcast,280,2013-05-21 06:15:00
1:35 AM,57.2,51.8,82,29.60,10.0,West,10.4,-,N/A,,Overcast,280,2013-05-21 06:35:00
1:55 AM,56.3,51.1,83,29.60,10.0,West,13.8,20.7,N/A,,Overcast,280,2013-05-21 06:55:00
2:15 AM,56.3,50.0,79,29.60,10.0,West,13.8,18.4,N/A,,Overcast,280,2013-05-21 07:15:00
2:35 AM,56.3,50.5,81,29.59,10.0,West,12.7,-,N/A,,Overcast,270,2013-05-21 07:35:00
2:55 AM,56.1,49.6,79,29.60,10.0,West,12.7,18.4,N/A,,Overcast,280,2013-05-21 07:55:00
3:15 AM,55.6,50.0,81,29.60,10.0,West,9.2,-,N/A,,Overcast,270,2013-05-21 08:15:00
3:35 AM,55.9,50.0,80,29.60,10.0,West,15.0,-,N/A,,Overcast,270,2013-05-21 08:35:00
3:55 AM,55.4,49.6,81,29.60,10.0,West,17.3,24.2,N/A,,Mostly Cloudy,270,2013-05-21 08:55:00
4:15 AM,54.5,50.2,85,29.60,10.0,West,10.4,20.7,N/A,,Mostly Cloudy,270,2013-05-21 09:15:00
4:35 AM,54.5,49.5,83,29.60,10.0,West,10.4,15.0,N/A,,Mostly Cloudy,270,2013-05-21 09:35:00
4:55 AM,54.5,49.1,82,29.61,10.0,West,13.8,17.3,N/A,,Mostly Cloudy,270,2013-05-21 09:55:00
5:15 AM,54.1,49.1,83,29.60,10.0,West,15.0,23.0,N/A,,Mostly Cloudy,270,2013-05-21 10:15:00
5:35 AM,53.8,48.4,82,29.61,10.0,West,16.1,26.5,N/A,,Overcast,270,2013-05-21 10:35:00
5:55 AM,53.6,48.2,82,29.61,10.0,West,13.8,-,N/A,,Mostly Cloudy,280,2013-05-21 10:55:00
6:15 AM,53.6,48.2,82,29.61,10.0,West,13.8,20.7,N/A,,Overcast,280,2013-05-21 11:15:00
6:35 AM,53.6,47.8,81,29.61,10.0,West,13.8,19.6,N/A,,Overcast,280,2013-05-21 11:35:00
6:55 AM,53.6,48.2,82,29.61,10.0,West,12.7,18.4,N/A,,Overcast,270,2013-05-21 11:55:00
7:15 AM,53.8,48.2,81,29.62,10.0,West,16.1,20.7,N/A,,Overcast,260,2013-05-21 12:15:00
7:35 AM,54.1,47.3,78,29.63,10.0,West,17.3,27.6,N/A,,Overcast,280,2013-05-21 12:35:00
7:55 AM,54.5,47.3,77,29.63,10.0,West,18.4,21.9,N/A,,Overcast,280,2013-05-21 12:55:00
8:15 AM,54.5,48.0,79,29.63,10.0,West,18.4,24.2,N/A,,Overcast,260,2013-05-21 13:15:00
8:35 AM,54.9,47.5,76,29.63,10.0,West,17.3,25.3,N/A,,Mostly Cloudy,270,2013-05-21 13:35:00
8:55 AM,55.6,49.1,79,29.64,10.0,West,20.7,27.6,N/A,,Mostly Cloudy,270,2013-05-21 13:55:00
9:15 AM,55.9,47.5,73,29.64,10.0,West,19.6,27.6,N/A,,Mostly Cloudy,280,2013-05-21 14:15:00
9:35 AM,55.4,49.3,80,29.64,10.0,West,17.3,21.9,N/A,,Mostly Cloudy,260,2013-05-21 14:35:00
9:55 AM,56.7,48.9,75,29.63,10.0,West,19.6,25.3,N/A,,Mostly Cloudy,260,2013-05-21 14:55:00
10:15 AM,55.4,48.2,77,29.63,7.0,West,19.6,27.6,N/A,,Overcast,260,2013-05-21 15:15:00
10:35 AM,56.5,49.3,77,29.63,10.0,West,19.6,25.3,N/A,,Overcast,260,2013-05-21 15:35:00
10:55 AM,55.9,48.2,75,29.63,10.0,West,17.3,25.3,N/A,,Overcast,270,2013-05-21 15:55:00
11:15 AM,57.2,48.0,71,29.63,10.0,West,21.9,25.3,N/A,,Overcast,270,2013-05-21 16:15:00
11:35 AM,56.5,47.8,73,29.63,10.0,WSW,19.6,-,N/A,,Overcast,250,2013-05-21 16:35:00
11:55 AM,56.1,48.2,75,29.63,10.0,West,17.3,24.2,N/A,,Overcast,260,2013-05-21 16:55:00
12:15 PM,56.3,49.5,78,29.63,10.0,WSW,18.4,21.9,N/A,,Overcast,250,2013-05-21 17:15:00
12:35 PM,57.6,50.0,76,29.62,10.0,West,16.1,21.9,N/A,,Overcast,270,2013-05-21 17:35:00
12:55 PM,57.9,51.1,78,29.61,10.0,West,18.4,26.5,N/A,,Overcast,260,2013-05-21 17:55:00
1:15 PM,58.5,52.3,80,29.61,7.0,West,15.0,-,N/A,,Overcast,260,2013-05-21 18:15:00
1:35 PM,59.2,53.8,82,29.62,7.0,West,16.1,23.0,N/A,,Overcast,270,2013-05-21 18:35:00
1:55 PM,59.0,53.8,83,29.63,7.0,West,15.0,24.2,N/A,,Overcast,270,2013-05-21 18:55:00
2:15 PM,59.0,54.0,83,29.64,10.0,West,13.8,23.0,N/A,,Overcast,260,2013-05-21 19:15:00
2:35 PM,58.1,55.6,91,29.64,2.0,West,11.5,-,N/A,Rain,Light Rain,260,2013-05-21 19:35:00
2:55 PM,58.6,55.8,90,29.64,2.0,West,15.0,21.9,N/A,,Light Drizzle,260,2013-05-21 19:55:00
3:15 PM,59.4,55.6,87,29.64,4.0,West,18.4,25.3,N/A,,Overcast,280,2013-05-21 20:15:00
3:35 PM,58.8,56.8,93,29.64,2.0,West,13.8,-,N/A,,Light Drizzle,270,2013-05-21 20:35:00
3:55 PM,58.8,55.9,90,29.64,5.0,WNW,21.9,27.6,N/A,,Overcast,290,2013-05-21 20:55:00
4:15 PM,59.2,55.9,89,29.64,7.0,WNW,25.3,32.2,N/A,,Overcast,290,2013-05-21 21:15:00
4:35 PM,59.4,56.7,91,29.64,7.0,WNW,25.3,31.1,N/A,,Overcast,290,2013-05-21 21:35:00
4:55 PM,58.6,56.5,93,29.64,2.5,WNW,20.7,28.8,N/A,,Overcast,290,2013-05-21 21:55:00
5:15 PM,57.6,55.9,94,29.65,1.8,NW,20.7,34.5,0.01,,Light Drizzle,310,2013-05-21 22:15:00
5:35 PM,58.5,55.4,90,29.65,7.0,NW,24.2,28.8,0.01,,Overcast,310,2013-05-21 22:35:00
5:55 PM,58.5,54.9,88,29.66,10.0,NW,18.4,27.6,0.01,,Overcast,320,2013-05-21 22:55:00
6:15 PM,56.7,54.5,92,29.66,3.0,NW,17.3,26.5,N/A,,Overcast,310,2013-05-21 23:15:00
6:35 PM,56.3,53.6,91,29.68,7.0,NW,18.4,26.5,N/A,,Overcast,320,2013-05-21 23:35:00
6:55 PM,56.3,52.7,88,29.69,10.0,NW,15.0,25.3,N/A,,Overcast,310,2013-05-21 23:55:00
7:15 PM,54.7,52.7,93,29.71,2.5,NW,15.0,21.9,N/A,,Overcast,310,2013-05-22 00:15:00
7:35 PM,54.5,52.2,92,29.71,10.0,NW,16.1,24.2,N/A,,Overcast,310,2013-05-22 00:35:00
7:55 PM,54.1,52.0,92,29.72,7.0,NW,17.3,26.5,N/A,,Overcast,310,2013-05-22 00:55:00
8:15 PM,53.6,51.4,92,29.71,10.0,NW,16.1,-,N/A,,Overcast,310,2013-05-22 01:15:00
8:35 PM,53.1,51.3,94,29.71,5.0,NW,15.0,25.3,N/A,,Overcast,310,2013-05-22 01:35:00
8:55 PM,52.7,51.3,95,29.71,7.0,NW,15.0,23.0,N/A,,Overcast,310,2013-05-22 01:55:00
9:15 PM,52.7,51.1,94,29.72,10.0,NW,15.0,26.5,N/A,,Overcast,310,2013-05-22 02:15:00
9:35 PM,52.7,50.4,92,29.73,10.0,NW,13.8,20.7,N/A,,Mostly Cloudy,310,2013-05-22 02:35:00
9:55 PM,52.7,50.2,91,29.74,10.0,WNW,15.0,21.9,N/A,,Overcast,300,2013-05-22 02:55:00
10:15 PM,52.3,49.8,91,29.73,10.0,NW,17.3,23.0,N/A,,Overcast,310,2013-05-22 03:15:00
10:35 PM,51.8,49.3,91,29.72,10.0,NW,20.7,26.5,N/A,,Overcast,310,2013-05-22 03:35:00
10:55 PM,51.4,49.3,92,29.71,10.0,NW,20.7,26.5,N/A,,Overcast,310,2013-05-22 03:55:00
11:15 PM,51.3,49.1,92,29.71,10.0,NW,18.4,26.5,N/A,,Overcast,310,2013-05-22 04:15:00
11:35 PM,51.1,49.3,94,29.71,10.0,NW,18.4,26.5,N/A,,Overcast,320,2013-05-22 04:35:00
11:55 PM,51.1,49.5,94,29.71,10.0,NW,16.1,25.3,N/A,,Overcast,320,2013-05-22 04:55:00